Location: *
(37.5724°S, 58.0067°E)
Time: 18:22:00
(UTC+00:00)

ALOS - Visible Passes

Search period start: 26 January 2021 00:00
Search period end: 05 February 2021 00:00
Orbit: 682 x 686 km, 97.9° (Epoch: 26 January)

Date Brightness Start Highest point End Pass type
(mag) Time Alt. Az. Time Alt. Az. Time Alt. Az.
26 Jan 5.1 22:29:23 10° E 22:31:52 14° ESE 22:34:21 10° SSE visible
27 Jan 2.4 00:04:08 10° N 00:08:45 56° W 00:13:25 10° SSW visible
27 Jan 4.0 23:04:25 10° NE 23:08:36 33° ESE 23:12:49 10° S visible
28 Jan 3.5 00:42:20 10° NW 00:46:01 23° W 00:49:44 10° SW visible
28 Jan 2.3 23:40:50 10° NNE 23:45:32 82° ESE 23:50:18 10° S visible
29 Jan 4.8 22:42:14 10° ENE 22:45:35 20° ESE 22:48:58 10° SSE visible
30 Jan 2.8 00:18:17 10° NNW 00:22:41 39° W 00:27:07 10° SSW visible
30 Jan 3.3 23:17:55 10° NE 23:22:23 46° ESE 23:26:56 10° S visible
31 Jan 5.3 22:21:03 10° E 22:22:39 12° ESE 22:24:16 10° SE visible
31 Jan 2.2 23:54:44 10° N 23:59:24 71° WNW 00:04:09 10° SSW visible
01 Feb 4.3 22:55:24 10° NE 22:59:20 27° ESE 23:03:18 10° SSE visible
02 Feb 3.2 00:32:37 10° NNW 00:36:37 28° W 00:40:41 10° SW visible
02 Feb 2.6 23:31:35 10° NNE 23:36:13 66° ESE 23:40:56 10° S visible
03 Feb 5.0 22:33:29 10° ENE 22:36:21 16° ESE 22:39:14 10° SSE visible
04 Feb 2.5 00:08:46 10° N 00:13:18 49° W 00:17:55 10° SSW visible
04 Feb 3.7 23:08:48 10° NE 23:13:06 37° ESE 23:17:28 10° S visible
